| time (UTC) | temp C | wind direction | speed KPH | gust KPH | rain 1hr cm | rain 24hr cm | rain mn cm | humidity % | barometer mb |
| 20260506164530 | 3 | 264 | 3.2 | 11.3 | 0.00 | 0.00 | 0.00 | 57 | |
| 20260506163521 | 3 | 316 | 3.2 | 8.0 | 0.00 | 0.00 | 0.00 | 56 | |
| 20260506162529 | 3 | 311 | 3.2 | 9.7 | 0.00 | 0.00 | 0.00 | 57 | |
| 20260506161521 | 3 | 281 | 3.2 | 9.7 | 0.00 | 0.00 | 0.00 | 58 | |
| 20260506160529 | 3 | 297 | 1.6 | 9.7 | 0.00 | 0.00 | 0.00 | 61 | |
| 20260506155522 | 2 | 245 | 1.6 | 4.8 | 0.00 | 0.00 | 0.00 | 62 | |
| 20260506154530 | 2 | 247 | 1.6 | 8.0 | 0.00 | 0.00 | 0.00 | 64 | |
| 20260506153522 | 2 | 244 | 3.2 | 9.7 | 0.00 | 0.00 | 0.00 | 64 | |
| 20260506152530 | 2 | 249 | 4.8 | 12.9 | 0.00 | 0.00 | 0.00 | 65 | |
| 20260506151521 | 2 | 266 | 3.2 | 11.3 | 0.00 | 0.00 | 0.00 | 66 | |
| 20260506150531 | 2 | 233 | 3.2 | 9.7 | 0.00 | 0.00 | 0.00 | 66 | |
| 20260506145521 | 2 | 318 | 4.8 | 14.5 | 0.00 | 0.00 | 0.00 | 66 | |
| 20260506144529 | 2 | 267 | 4.8 | 12.9 | 0.00 | 0.00 | 0.00 | 67 | |
| 20260506143522 | 2 | 235 | 3.2 | 9.7 | 0.00 | 0.00 | 0.00 | 69 | |
| 20260506142530 | 2 | 252 | 3.2 | 9.7 | 0.00 | 0.00 | 0.00 | 69 | |
| 20260506141522 | 2 | 264 | 3.2 | 8.0 | 0.00 | 0.00 | 0.00 | 70 | |
| 20260506140530 | 1 | 243 | 1.6 | 8.0 | 0.00 | 0.00 | 0.00 | 71 | |
| 20260506135522 | 1 | 294 | 3.2 | 11.3 | 0.00 | 0.00 | 0.00 | 69 | |
| 20260506134530 | 1 | 334 | 1.6 | 8.0 | 0.00 | 0.00 | 0.00 | 67 | |
| 20260506133535 | 1 | 311 | 3.2 | 9.7 | 0.00 | 0.00 | 0.00 | 65 | |
| 20260506132530 | 1 | 289 | 3.2 | 9.7 | 0.00 | 0.00 | 0.00 | 63 | |
| 20260506131522 | 1 | 333 | 3.2 | 9.7 | 0.00 | 0.00 | 0.00 | 62 | |
| 20260506130530 | 1 | 318 | 1.6 | 8.0 | 0.00 | 0.00 | 0.00 | 61 | |
| 20260506125522 | 1 | 307 | 1.6 | 8.0 | 0.00 | 0.00 | 0.00 | 60 | |
| 20260506124530 | 1 | 322 | 1.6 | 4.8 | 0.00 | 0.00 | 0.00 | 60 | |
| 20260506123522 | 1 | 237 | 1.6 | 3.2 | 0.00 | 0.00 | 0.00 | 61 | |
| 20260506122530 | 1 | 224 | 1.6 | 4.8 | 0.00 | 0.00 | 0.00 | 60 | |
| 20260506121524 | 1 | 239 | 1.6 | 9.7 | 0.00 | 0.00 | 0.00 | 60 | |
| 20260506120530 | 0 | 268 | 1.6 | 11.3 | 0.00 | 0.00 | 0.00 | 61 | |
| 20260506115522 | 0 | 245 | 1.6 | 8.0 | 0.00 | 0.00 | 0.00 | 62 | |
| 20260506114530 | 0 | 273 | 1.6 | 8.0 | 0.00 | 0.00 | 0.00 | 65 | |
| 20260506113522 | 0 | 321 | 1.6 | 11.3 | 0.00 | 0.00 | 0.00 | 66 | |
| 20260506112550 | 0 | 286 | 1.6 | 8.0 | 0.00 | 0.00 | 0.00 | 67 | |
| 20260506111524 | 0 | 303 | 1.6 | 8.0 | 0.00 | 0.00 | 0.00 | 67 | |
| 20260506110530 | 0 | 333 | 3.2 | 11.3 | 0.00 | 0.00 | 0.00 | 67 | |
| 20260506105522 | 0 | 344 | 0.0 | 4.8 | 0.00 | 0.00 | 0.00 | 67 | |
| 20260506104550 | 0 | 256 | 0.0 | 4.8 | 0.00 | 0.00 | 0.00 | 67 | |
| 20260506103542 | 0 | 354 | 1.6 | 4.8 | 0.00 | 0.00 | 0.00 | 66 | |
| 20260506102530 | 0 | 345 | 0.0 | 8.0 | 0.00 | 0.00 | 0.00 | 67 | |
| 20260506101522 | 0 | 281 | 0.0 | 3.2 | 0.00 | 0.00 | 0.00 | 67 | |
| 20260506100530 | 0 | 245 | 0.0 | 4.8 | 0.00 | 0.00 | 0.00 | 67 | |
| 20260506095522 | 0 | 265 | 0.0 | 4.8 | 0.00 | 0.00 | 0.00 | 69 | |
| 20260506094530 | 0 | 251 | 0.0 | 1.6 | 0.00 | 0.00 | 0.00 | 71 | |
| 20260506093523 | 0 | 309 | 1.6 | 3.2 | 0.00 | 0.00 | 0.00 | 71 | |
| 20260506092530 | 0 | 288 | 0.0 | 3.2 | 0.00 | 0.00 | 0.00 | 71 | |
| 20260506091522 | 0 | 0.0 | 0.0 | 0.00 | 0.00 | 0.00 | 72 | ||
| 20260506090531 | 0 | 268 | 0.0 | 1.6 | 0.00 | 0.00 | 0.00 | 71 | |
| 20260506085544 | 0 | 300 | 1.6 | 3.2 | 0.00 | 0.00 | 0.00 | 70 | |
| 20260506084530 | 0 | 274 | 0.0 | 3.2 | 0.00 | 0.00 | 0.00 | 70 | |
| 20260506083522 | 0 | 278 | 0.0 | 1.6 | 0.00 | 0.00 | 0.00 | 70 | |
| 20260506082531 | 0 | 325 | 1.6 | 4.8 | 0.00 | 0.00 | 0.00 | 70 | |
| 20260506081543 | 0 | 267 | 1.6 | 3.2 | 0.00 | 0.00 | 0.00 | 70 | |
| 20260506080531 | 0 | 346 | 1.6 | 3.2 | 0.00 | 0.00 | 0.00 | 70 | |
| 20260506073522 | 0 | 326 | 1.6 | 4.8 | 0.00 | 0.00 | 0.00 | 65 | |
| 20260506072530 | 0 | 315 | 1.6 | 9.7 | 0.00 | 0.00 | 0.00 | 65 | |
| 20260506071522 | 0 | 274 | 1.6 | 3.2 | 0.00 | 0.00 | 0.00 | 65 | |
| 20260506070530 | 1 | 313 | 1.6 | 3.2 | 0.00 | 0.00 | 0.00 | 65 | |
| 20260506061523 | 1 | 316 | 1.6 | 12.9 | 0.00 | 0.00 | 0.00 | 63 | |
| 20260506060531 | 1 | 336 | 1.6 | 12.9 | 0.00 | 0.00 | 0.00 | 63 | |
| 20260506050531 | 1 | 268 | 1.6 | 3.2 | 0.00 | 0.00 | 0.00 | 60 | |
| 20260506044531 | 1 | 333 | 3.2 | 11.3 | 0.00 | 0.00 | 0.00 | 60 | |
| 20260506043523 | 1 | 326 | 3.2 | 11.3 | 0.00 | 0.00 | 0.00 | 60 | |
| 20260506042532 | 1 | 350 | 4.8 | 16.1 | 0.00 | 0.00 | 0.00 | 61 | |
| 20260506041535 | 1 | 11 | 4.8 | 20.9 | 0.00 | 0.00 | 0.00 | 62 | |
| 20260506040531 | 1 | 338 | 1.6 | 9.7 | 0.00 | 0.00 | 0.00 | 63 | |
| 20260506035523 | 1 | 338 | 3.2 | 8.0 | 0.00 | 0.00 | 0.00 | 62 | |
| 20260506034553 | 1 | 345 | 3.2 | 11.3 | 0.00 | 0.00 | 0.00 | 62 | |
| 20260506033523 | 1 | 341 | 3.2 | 8.0 | 0.00 | 0.00 | 0.00 | 61 | |
| 20260506032531 | 1 | 331 | 1.6 | 4.8 | 0.00 | 0.00 | 0.00 | 61 | |
| 20260506031523 | 1 | 327 | 1.6 | 9.7 | 0.00 | 0.00 | 0.00 | 61 | |
| 20260506030551 | 1 | 299 | 1.6 | 4.8 | 0.00 | 0.00 | 0.00 | 61 | |
| 20260506025523 | 1 | 308 | 1.6 | 4.8 | 0.00 | 0.00 | 0.00 | 61 | |
| 20260506024531 | 1 | 312 | 1.6 | 3.2 | 0.00 | 0.00 | 0.00 | 61 | |
| 20260506023523 | 1 | 311 | 3.2 | 11.3 | 0.00 | 0.00 | 0.00 | 60 | |
| 20260506022531 | 1 | 263 | 1.6 | 4.8 | 0.00 | 0.00 | 0.00 | 60 | |
| 20260506021524 | 1 | 242 | 1.6 | 4.8 | 0.00 | 0.00 | 0.00 | 60 | |
| 20260506020551 | 2 | 342 | 1.6 | 4.8 | 0.00 | 0.00 | 0.00 | 61 | |
| 20260506015523 | 2 | 315 | 3.2 | 9.7 | 0.00 | 0.00 | 0.00 | 61 | |
| 20260506014551 | 2 | 321 | 3.2 | 11.3 | 0.00 | 0.00 | 0.00 | 60 | |
| 20260506013523 | 2 | 327 | 0.0 | 4.8 | 0.00 | 0.00 | 0.00 | 59 | |
| 20260506012535 | 2 | 329 | 3.2 | 8.0 | 0.00 | 0.00 | 0.00 | 59 | |
| 20260506011523 | 2 | 313 | 1.6 | 14.5 | 0.00 | 0.00 | 0.00 | 59 | |
| 20260506010531 | 2 | 354 | 3.2 | 14.5 | 0.00 | 0.00 | 0.00 | 58 | |
| 20260506005524 | 2 | 264 | 1.6 | 9.7 | 0.00 | 0.00 | 0.00 | 57 | |
| 20260506004532 | 2 | 313 | 1.6 | 4.8 | 0.00 | 0.00 | 0.00 | 57 | |
| 20260506003523 | 2 | 344 | 1.6 | 11.3 | 0.00 | 0.00 | 0.00 | 57 | |
| 20260506002553 | 2 | 328 | 1.6 | 8.0 | 0.00 | 0.00 | 0.00 | 56 | |
| 20260506001525 | 2 | 322 | 3.2 | 12.9 | 0.00 | 0.00 | 0.00 | 55 | |
| 20260506000531 | 2 | 320 | 3.2 | 11.3 | 0.00 | 0.00 | 0.00 | 55 | |
| 20260505235523 | 2 | 275 | 3.2 | 9.7 | 0.00 | 0.00 | 0.00 | 55 | |
| 20260505234552 | 2 | 349 | 3.2 | 9.7 | 0.00 | 0.00 | 0.00 | 54 | |
| 20260505233544 | 2 | 325 | 4.8 | 12.9 | 0.00 | 0.00 | 0.00 | 54 | |
| 20260505232608 | 2 | 349 | 4.8 | 14.5 | 0.00 | 0.00 | 0.00 | 54 | |
| 20260505231523 | 2 | 324 | 3.2 | 9.7 | 0.00 | 0.00 | 0.00 | 54 | |
| 20260505230532 | 3 | 279 | 1.6 | 9.7 | 0.00 | 0.00 | 0.00 | 55 | |
| 20260505225523 | 3 | 315 | 1.6 | 9.7 | 0.00 | 0.00 | 0.00 | 54 | |
| 20260505224535 | 3 | 20 | 3.2 | 11.3 | 0.00 | 0.00 | 0.00 | 53 | |
| 20260505223524 | 3 | 240 | 1.6 | 8.0 | 0.00 | 0.00 | 0.00 | 52 | |
| 20260505222532 | 3 | 309 | 3.2 | 9.7 | 0.00 | 0.00 | 0.00 | 51 | |
| 20260505221524 | 3 | 280 | 3.2 | 11.3 | 0.00 | 0.00 | 0.00 | 52 | |
| 20260505220532 | 3 | 295 | 3.2 | 9.7 | 0.00 | 0.00 | 0.00 | 52 | |
| 20260505215535 | 3 | 265 | 1.6 | 9.7 | 0.00 | 0.00 | 0.00 | 51 | |
| 20260505214532 | 3 | 325 | 3.2 | 9.7 | 0.00 | 0.00 | 0.00 | 50 | |
| 20260505213555 | 4 | 245 | 3.2 | 9.7 | 0.00 | 0.00 | 0.00 | 49 | |
| 20260505212532 | 4 | 305 | 4.8 | 14.5 | 0.00 | 0.00 | 0.00 | 49 | |
| 20260505211524 | 3 | 245 | 3.2 | 12.9 | 0.00 | 0.00 | 0.00 | 50 | |
| 20260505210535 | 4 | 352 | 6.4 | 12.9 | 0.00 | 0.00 | 0.00 | 48 | |
| 20260505205524 | 4 | 243 | 4.8 | 12.9 | 0.00 | 0.00 | 0.00 | 49 | |
| 20260505204533 | 4 | 310 | 3.2 | 12.9 | 0.00 | 0.00 | 0.00 | 50 | |
| 20260505203624 | 4 | 253 | 3.2 | 9.7 | 0.00 | 0.00 | 0.00 | 51 | |
| 20260505202532 | 4 | 260 | 4.8 | 11.3 | 0.00 | 0.00 | 0.00 | 50 | |
| 20260505201525 | 4 | 304 | 3.2 | 9.7 | 0.00 | 0.00 | 0.00 | 52 | |
| 20260505200533 | 3 | 235 | 3.2 | 12.9 | 0.00 | 0.00 | 0.00 | 51 | |
| 20260505195524 | 3 | 249 | 3.2 | 14.5 | 0.00 | 0.00 | 0.00 | 53 | |
| 20260505194535 | 3 | 255 | 3.2 | 12.9 | 0.00 | 0.00 | 0.00 | 54 | |
| 20260505193524 | 3 | 243 | 3.2 | 9.7 | 0.00 | 0.00 | 0.00 | 54 | |
| 20260505192532 | 3 | 263 | 3.2 | 8.0 | 0.00 | 0.00 | 0.00 | 54 | |
| 20260505191526 | 3 | 248 | 3.2 | 16.1 | 0.00 | 0.00 | 0.00 | 54 | |
| 20260505190532 | 3 | 241 | 3.2 | 14.5 | 0.00 | 0.00 | 0.00 | 53 | |
| 20260505185524 | 3 | 273 | 4.8 | 16.1 | 0.00 | 0.00 | 0.00 | 53 | |
| 20260505184535 | 3 | 276 | 3.2 | 16.1 | 0.00 | 0.00 | 0.00 | 52 | |
| 20260505183524 | 3 | 241 | 3.2 | 11.3 | 0.00 | 0.00 | 0.00 | 54 | |
| 20260505182535 | 3 | 288 | 3.2 | 11.3 | 0.00 | 0.00 | 0.00 | 54 | |
| 20260505181524 | 2 | 249 | 3.2 | 11.3 | 0.00 | 0.00 | 0.00 | 55 | |
| 20260505180535 | 2 | 254 | 3.2 | 11.3 | 0.00 | 0.00 | 0.00 | 56 | |
| 20260505175524 | 2 | 234 | 3.2 | 12.9 | 0.00 | 0.00 | 0.00 | 55 | |
| 20260505174535 | 2 | 233 | 4.8 | 20.9 | 0.00 | 0.00 | 0.00 | 56 | |
| 20260505173524 | 2 | 223 | 3.2 | 11.3 | 0.00 | 0.00 | 0.00 | 56 | |
| 20260505172557 | 2 | 252 | 4.8 | 14.5 | 0.00 | 0.00 | 0.00 | 57 | |
| 20260505171524 | 2 | 255 | 3.2 | 8.0 | 0.00 | 0.00 | 0.00 | 57 | |
| 20260505170535 | 2 | 306 | 3.2 | 9.7 | 0.00 | 0.00 | 0.00 | 57 | |
| 20260505165535 | 2 | 355 | 3.2 | 9.7 | 0.00 | 0.00 | 0.00 | 59 |